"Pseudo-MPEC" for P20UIlV

Created 2019 Dec 5 14:07:32 UT using Find_Orb

Click here for an explanation of pseudo-MPECs

 
 Astrometry: 
     P20UIlV  C2019 11 26\^ROj5yHcXixTuuxiU]AstrometryG/`$tgLnBPuYEdXG(76EeUCF52
     P20UIlV  C2019 11 26U0Zst(Q6V?credacted;K[+!5Z[ZEm\M^r-]^bZ9L;oiRQ.JiY_NF52
     P20UIlV  C2019 11 265O/JcTqE[VB9V^tIdidXJp8Yt'lZV[ce_LsWr.g6*FhToRwgqV8gF52
     P20UIlV ^C2019 12 03.55945806 13 34.627+55 38 57.82   ~C3Iq 21.54GVNEOCP568
     P20UIlV ^C2019 12 03.56040806 13 34.592+55 38 58.02   ~C3Iq 21.39GVNEOCP568
     P20UIlV ^C2019 12 03.56135706 13 34.567+55 38 58.20   ~C3Iq 21.41GVNEOCP568
     P20UIlV KC2019 12 05nKaPqu`-^%l1R#]`jsDqs2%h#/53!V'Lr1xGqclick+`PQK(U.BEL01
     P20UIlV KC2019 12 05[fpTRvvhereqS+`f-=G3iY16*pv[HGcW/`VjLMD%#tPVjvgaCPVfL01
     P20UIlV KC2019 12 05A;6=v8?9o(yLsSq_Vl5fL%b9g_mq38WJfor0-b)F21^*7V?GT3N3L01
     P20UIlV IC2019 12 05uATZhLP-NnhWoio8MO))nP+c3iexplanation8.DMwJ#yhe%=3GNL01

Station data:
(568) Mauna Kea  (N19.826116 W155.472200)  US/Hawaii.
(F52) Pan-STARRS 2, Haleakala  (N20.707384 W156.255910)  US/Hawaii. 1.8-m
   Ritchey-Chrétien + CCD.
(L01) Višnjan Observatory, Tičan  (N45.290900 E13.749300)  Croatia.
   Observers K. Korlević, E. Pettarin. Measurer E. Pettarin. 1.0-m f/2.9
   reflector + CCD.

Orbital elements:  P20UIlV
   Perihelion 2020 Feb 8.183103 +/- 1.02 TT =  4:23:40 (JD 2458887.683103)
Epoch 2019 Dec  5.0 TT = JDT 2458822.5   Earth MOID: 0.5471   AutoNEOCP
M 344.03133479 +/- 0.26             (J2000 ecliptic)
n   0.24498166 +/- 0.000883         Peri.  153.57341 +/- 1.0
a   2.52957170 +/- 0.00608          Node   324.37077 +/- 0.30
e   0.3998800 +/- 0.00183           Incl.   15.21389 +/- 0.032
P   4.02                   H 20.6   G  0.15   U  8.0  
q 1.51804642 +/- 0.00481    Q 3.54109697 +/- 0.0111
From 10 observations 2019 Nov. 26-Dec. 5; mean residual 0".11
Residuals in arcseconds: 
191126 F52  .07+  .21-    191203 568  .03-  .00     191205 L01  .17+  .09+    
191126 F52  .09-  .00     191203 568  .03+  .00     191205 L01  .04-  .07+    
191126 F52  .02+  .21+    191205 L01  .23-  .00     
191203 568  .00   .01-    191205 L01  .10+  .16-    

Ephemerides (geocentric):
Date (UTC) HH   RA              Dec         delta   r     elong  mag " sig PA
---- -- -- --  -------------   -----------  ------ ------ -----  --- ---- ---
2019 12 05 14  06 12 36.537   +55 45 17.74  .71975 1.6189 142.9 22.0 .238  62
2019 12 05 15  06 12 35.187   +55 45 24.36  .71953 1.6187 142.9 22.0 .250  62
2019 12 05 16  06 12 33.832   +55 45 30.92  .71930 1.6186 142.9 22.0 .262  62
2019 12 05 17  06 12 32.471   +55 45 37.42  .71908 1.6185 143.0 22.0 .274  62
2019 12 05 18  06 12 31.104   +55 45 43.87  .71886 1.6184 143.0 22.0 .287  62
2019 12 05 19  06 12 29.732   +55 45 50.27  .71863 1.6182 143.0 22.0 .299  62
2019 12 05 20  06 12 28.354   +55 45 56.61  .71841 1.6181 143.0 22.0 .312  63
2019 12 05 21  06 12 26.971   +55 46 02.89  .71819 1.6180 143.0 22.0 .325  63
2019 12 05 22  06 12 25.582   +55 46 09.12  .71797 1.6179 143.1 22.0 .338  63
2019 12 05 23  06 12 24.187   +55 46 15.29  .71775 1.6178 143.1 22.0 .351  63
2019 12 06 00  06 12 22.787   +55 46 21.41  .71753 1.6176 143.1 22.0 .364  63
2019 12 06 01  06 12 21.381   +55 46 27.47  .71731 1.6175 143.1 22.0 .377  63
2019 12 06 02  06 12 19.970   +55 46 33.47  .71709 1.6174 143.1 22.0 .391  63
2019 12 06 03  06 12 18.553   +55 46 39.42  .71687 1.6173 143.2 22.0 .404  63
2019 12 06 04  06 12 17.130   +55 46 45.32  .71665 1.6171 143.2 22.0 .418  63
2019 12 06 05  06 12 15.702   +55 46 51.15  .71643 1.6170 143.2 22.0 .432  63
2019 12 06 06  06 12 14.269   +55 46 56.93  .71621 1.6169 143.2 22.0 .446  63
2019 12 06 07  06 12 12.830   +55 47 02.66  .71599 1.6168 143.2 22.0 .460  63
2019 12 06 08  06 12 11.385   +55 47 08.33  .71577 1.6167 143.3 22.0 .474  63
2019 12 06 09  06 12 09.935   +55 47 13.94  .71555 1.6165 143.3 22.0 .488  63
2019 12 06 10  06 12 08.480   +55 47 19.49  .71533 1.6164 143.3 22.0 .503  63
2019 12 06 11  06 12 07.019   +55 47 24.99  .71511 1.6163 143.3 22.0 .517  63
2019 12 06 12  06 12 05.552   +55 47 30.43  .71489 1.6162 143.3 22.0 .532  63
2019 12 06 13  06 12 04.080   +55 47 35.81  .71468 1.6161 143.4 22.0 .547  63
2019 12 06 14  06 12 02.603   +55 47 41.14  .71446 1.6159 143.4 22.0 .562  63
2019 12 06 15  06 12 01.120   +55 47 46.41  .71424 1.6158 143.4 22.0 .577  63
2019 12 06 16  06 11 59.632   +55 47 51.62  .71402 1.6157 143.4 22.0 .592  63
2019 12 06 17  06 11 58.138   +55 47 56.78  .71381 1.6156 143.4 22.0 .607  63
2019 12 06 18  06 11 56.639   +55 48 01.88  .71359 1.6154 143.5 22.0 .623  63
2019 12 06 19  06 11 55.134   +55 48 06.92  .71337 1.6153 143.5 22.0 .638  63
2019 12 06 20  06 11 53.624   +55 48 11.91  .71316 1.6152 143.5 22.0 .654  63
2019 12 06 21  06 11 52.108   +55 48 16.83  .71294 1.6151 143.5 22.0 .670  63
2019 12 06 22  06 11 50.588   +55 48 21.70  .71273 1.6150 143.5 22.0 .686  63
2019 12 06 23  06 11 49.061   +55 48 26.51  .71251 1.6148 143.6 22.0 .702  63
2019 12 07 00  06 11 47.530   +55 48 31.27  .71229 1.6147 143.6 22.0 .719  63
2019 12 07 01  06 11 45.993   +55 48 35.96  .71208 1.6146 143.6 22.0 .735  63
2019 12 07 02  06 11 44.450   +55 48 40.60  .71187 1.6145 143.6 22.0 .751  62
2019 12 07 03  06 11 42.902   +55 48 45.18  .71165 1.6144 143.6 22.0 .768  62
2019 12 07 04  06 11 41.349   +55 48 49.70  .71144 1.6142 143.6 22.0 .785  62
2019 12 07 05  06 11 39.791   +55 48 54.17  .71122 1.6141 143.7 22.0 .802  62
2019 12 07 06  06 11 38.227   +55 48 58.57  .71101 1.6140 143.7 22.0 .819  62
2019 12 07 07  06 11 36.658   +55 49 02.92  .71080 1.6139 143.7 22.0 .836  62
2019 12 07 08  06 11 35.083   +55 49 07.21  .71058 1.6138 143.7 22.0 .854  62
2019 12 07 09  06 11 33.503   +55 49 11.44  .71037 1.6136 143.7 22.0 .871  62
2019 12 07 10  06 11 31.918   +55 49 15.61  .71016 1.6135 143.8 22.0 .889  62
2019 12 07 11  06 11 30.328   +55 49 19.73  .70994 1.6134 143.8 22.0 .906  62
2019 12 07 12  06 11 28.732   +55 49 23.78  .70973 1.6133 143.8 22.0 .924  62
2019 12 07 13  06 11 27.131   +55 49 27.78  .70952 1.6132 143.8 22.0 .942  62